Terminal Aerodrome Forecast
Issued by NWS Cleveland, OH

Home | Current Version | Previous Version | Text Only | Print | Product List | Glossary Off
Versions: 1 2 3 4 5 6 7 8 9 10 11 12 13 14 15 16 17 18

000
FTUS41 KCLE 031900 AAA
TAFTOL
TAF AMD
KTOL 031930Z 0319/0418 17009KT 1SM -FZRA BR OVC006
     FM032100 21013G20KT 2SM -RA BR OVC005 WS020/23045KT
     FM040100 25015G25KT 3SM -RA BR SCT005 OVC015 WS020/22045KT
     FM040600 28012KT 6SM -SN BKN018
     FM041200 29012KT P6SM BKN045=

USA.gov is the U.S. government's official web portal to all federal, state and local government web resources and services.